CUTE-1.7+APD II (CO-65)

Last updated on Thu Mar 05 2026 00:03:21 GMT+0000 (Coordinated Universal Time)

1 32785U 08021C 26063.60536738 .00009860 00000+0 63902-3 0 9996 2 32785 97.8202 42.9858 0010243 35.0259 325.1640 15.08285499969427
UTC large
Height (km)
Speed (km/s)
/
Latitude / Longitude
Inclination (degrees)
Orbital Period (minutes)
Azimuth
Elevation
Range (km)
Doppler Factor

Next 0 passes for location: London (51.5072 / 0.1276)

Sorry there are no passes over London.